TimeCST,TemperatureF,Dew PointF,Humidity,Sea Level PressureIn,VisibilityMPH,Wind Direction,Wind SpeedMPH,Gust SpeedMPH,PrecipitationIn,Events,Conditions,WindDirDegrees,DateUTC
12:52 AM,-2.9,-6.0,87,30.00,0.2,Calm,Calm,-,N/A,Fog,Light Freezing Fog,0,2013-02-24 06:52:00
1:52 AM,1.0,-2.0,87,29.99,0.2,NNE,4.6,-,N/A,Fog,Light Freezing Fog,30,2013-02-24 07:52:00
2:52 AM,-0.0,-2.9,88,30.00,0.2,Calm,Calm,-,N/A,Fog,Light Freezing Fog,0,2013-02-24 08:52:00
3:52 AM,-0.9,-4.0,87,30.01,0.2,WNW,3.5,-,N/A,Fog,Light Freezing Fog,300,2013-02-24 09:52:00
4:52 AM,1.9,-2.0,83,30.01,0.2,Calm,Calm,-,N/A,Fog,Light Freezing Fog,0,2013-02-24 10:52:00
5:25 AM,3.2,-0.4,85,29.94,1.2,North,3.5,-,N/A,,Scattered Clouds,10,2013-02-24 11:25:00
5:32 AM,3.2,-0.4,85,29.94,3.0,Calm,Calm,-,N/A,,Partly Cloudy,0,2013-02-24 11:32:00
5:52 AM,3.9,-0.9,80,30.03,5.0,NNE,3.5,-,N/A,,Haze,20,2013-02-24 11:52:00
6:04 AM,3.2,-0.4,85,29.95,6.0,Calm,Calm,-,N/A,,Scattered Clouds,0,2013-02-24 12:04:00
6:15 AM,3.2,-0.4,85,29.95,5.0,Calm,Calm,-,N/A,,Mostly Cloudy,0,2013-02-24 12:15:00
6:52 AM,1.9,-2.9,80,30.05,6.0,Calm,Calm,-,N/A,,Haze,0,2013-02-24 12:52:00
7:42 AM,5.0,3.2,92,29.97,3.0,Calm,Calm,-,N/A,,Scattered Clouds,0,2013-02-24 13:42:00
7:52 AM,6.1,1.9,83,30.05,4.0,NE,3.5,-,N/A,,Partly Cloudy,50,2013-02-24 13:52:00
8:52 AM,9.0,6.1,88,30.07,4.0,NE,4.6,-,N/A,,Clear,50,2013-02-24 14:52:00
9:52 AM,12.0,9.0,88,30.08,4.0,East,4.6,-,N/A,,Partly Cloudy,90,2013-02-24 15:52:00
10:52 AM,16.0,12.9,88,30.10,4.0,Calm,Calm,-,N/A,,Clear,0,2013-02-24 16:52:00
11:52 AM,19.0,15.1,85,30.11,4.0,SSW,3.5,-,N/A,,Mostly Cloudy,210,2013-02-24 17:52:00
12:22 PM,19.4,15.8,86,30.02,5.0,Calm,Calm,-,N/A,,Haze,0,2013-02-24 18:22:00
12:52 PM,21.0,17.1,85,30.09,4.0,East,4.6,-,N/A,,Overcast,80,2013-02-24 18:52:00
1:52 PM,21.9,18.0,85,30.08,4.0,East,5.8,-,N/A,,Overcast,100,2013-02-24 19:52:00
2:52 PM,23.0,19.0,85,30.07,4.0,East,5.8,-,N/A,,Overcast,80,2013-02-24 20:52:00
3:52 PM,23.0,19.0,85,30.08,4.0,East,3.5,-,N/A,,Overcast,80,2013-02-24 21:52:00
4:52 PM,23.0,19.0,85,30.08,3.0,ENE,5.8,-,N/A,,Overcast,60,2013-02-24 22:52:00
5:52 PM,24.1,19.9,84,30.09,3.0,NE,5.8,-,N/A,,Overcast,50,2013-02-24 23:52:00
6:52 PM,24.1,19.9,84,30.09,4.0,NE,5.8,-,N/A,,Overcast,50,2013-02-25 00:52:00
7:52 PM,24.1,19.9,84,30.11,4.0,NNE,3.5,-,N/A,,Overcast,30,2013-02-25 01:52:00
8:52 PM,24.1,21.0,88,30.12,4.0,Calm,Calm,-,N/A,,Overcast,0,2013-02-25 02:52:00
9:52 PM,24.1,21.0,88,30.12,4.0,Calm,Calm,-,N/A,,Overcast,0,2013-02-25 03:52:00
10:44 PM,24.8,21.2,86,30.06,4.0,Calm,Calm,-,N/A,,Overcast,0,2013-02-25 04:44:00
10:52 PM,24.1,21.0,88,30.13,4.0,Calm,Calm,-,N/A,,Overcast,0,2013-02-25 04:52:00
11:52 PM,24.1,21.0,88,30.12,4.0,Calm,Calm,-,N/A,,Overcast,0,2013-02-25 05:52:00